DLH269 NZAA-NZWN

Flight info

Callsign DLH269
Flight time 0h 45m
Altitude 32000
Route IGBAT Y506 TPAPA
Aircraft A35K/H-SDE2E3GHIJ3J4J5LM1ORWXY/LB1D1

Departure

Time 2026-05-05 09:28
Airport Auckland International Airport (NZAA)

Arrival

Time 2026-05-05 10:13
Airport Wellington International Airport (NZWN)
Time Latitude Longitude Altitude Speed Heading
2026-05-05 09:18 -37.00845 174.78293 31 ft 0 kts 323°
2026-05-05 09:20 -37.00858 174.78306 31 ft 3 kts 323°
2026-05-05 09:20 -37.00867 174.78314 31 ft 3 kts 323°
2026-05-05 09:20 -37.00887 174.78332 31 ft 3 kts 323°
2026-05-05 09:21 -37.00896 174.78341 31 ft 3 kts 323°
2026-05-05 09:21 -37.00911 174.78354 31 ft 3 kts 323°
2026-05-05 09:21 -37.00925 174.78367 31 ft 3 kts 323°
2026-05-05 09:21 -37.00939 174.78379 31 ft 3 kts 323°
2026-05-05 09:22 -37.00947 174.78387 30 ft 0 kts 323°
2026-05-05 09:23 -37.00946 174.78385 31 ft 1 kts 316°
2026-05-05 09:23 -37.00950 174.78368 31 ft 4 kts 240°
2026-05-05 09:24 -37.00997 174.78323 31 ft 10 kts 215°
2026-05-05 09:24 -37.01071 174.78278 31 ft 13 kts 200°
2026-05-05 09:24 -37.01132 174.78191 31 ft 15 kts 249°
2026-05-05 09:24 -37.01170 174.78059 31 ft 17 kts 251°
2026-05-05 09:25 -37.01212 174.77907 31 ft 20 kts 251°
2026-05-05 09:25 -37.01256 174.77736 31 ft 22 kts 252°
2026-05-05 09:25 -37.01308 174.77548 31 ft 24 kts 250°
2026-05-05 09:25 -37.01364 174.77347 32 ft 25 kts 251°
2026-05-05 09:26 -37.01425 174.77138 32 ft 24 kts 240°
2026-05-05 09:26 -37.01521 174.77093 32 ft 15 kts 192°
2026-05-05 09:26 -37.01602 174.77120 32 ft 12 kts 109°
2026-05-05 09:26 -37.01593 174.77216 32 ft 0 kts 71°
2026-05-05 09:27 -37.01591 174.77221 32 ft 3 kts 71°
2026-05-05 09:27 -37.01496 174.77567 32 ft 95 kts 70°
2026-05-05 09:27 -37.01167 174.78765 36 ft 192 kts 71°
2026-05-05 09:28 -37.00709 174.80450 1066 ft 207 kts 70°
2026-05-05 09:28 -37.00250 174.82266 2399 ft 228 kts 75°
2026-05-05 09:28 -37.00140 174.84249 3344 ft 235 kts 93°
2026-05-05 09:28 -37.00761 174.86219 3814 ft 257 kts 126°
2026-05-05 09:29 -37.02259 174.87509 4430 ft 270 kts 160°
2026-05-05 09:29 -37.04117 174.87591 5158 ft 276 kts 192°
2026-05-05 09:29 -37.05968 174.86826 5954 ft 278 kts 201°
2026-05-05 09:29 -37.07771 174.85979 6711 ft 282 kts 201°
2026-05-05 09:30 -37.09641 174.85150 7422 ft 286 kts 200°
2026-05-05 09:30 -37.11536 174.84347 8134 ft 289 kts 199°
2026-05-05 09:30 -37.13469 174.83600 8874 ft 292 kts 197°
2026-05-05 09:30 -37.15426 174.82872 9607 ft 295 kts 197°
2026-05-05 09:31 -37.17415 174.82132 10275 ft 302 kts 197°
2026-05-05 09:31 -37.19467 174.81364 10574 ft 320 kts 197°
2026-05-05 09:31 -37.21659 174.80538 10837 ft 337 kts 197°
2026-05-05 09:31 -37.23964 174.79661 11101 ft 354 kts 197°
2026-05-05 09:32 -37.26376 174.78738 11414 ft 367 kts 197°
2026-05-05 09:32 -37.28844 174.77792 11934 ft 373 kts 197°
2026-05-05 09:32 -37.31337 174.76837 12526 ft 376 kts 197°
2026-05-05 09:32 -37.33825 174.75884 13101 ft 379 kts 197°
2026-05-05 09:33 -37.36362 174.74912 13684 ft 382 kts 197°
2026-05-05 09:33 -37.38917 174.73934 14275 ft 385 kts 197°
2026-05-05 09:33 -37.41492 174.72947 14800 ft 389 kts 198°
2026-05-05 09:33 -37.44095 174.71949 15310 ft 393 kts 198°
2026-05-05 09:34 -37.46720 174.70941 15829 ft 396 kts 198°
2026-05-05 09:34 -37.49366 174.69925 16364 ft 400 kts 198°
2026-05-05 09:34 -37.52041 174.68896 16891 ft 403 kts 198°
2026-05-05 09:34 -37.54735 174.67860 17430 ft 407 kts 199°
2026-05-05 09:35 -37.57456 174.66812 17959 ft 410 kts 199°
2026-05-05 09:35 -37.62964 174.64698 19011 ft 416 kts 199°
2026-05-05 09:35 -37.65701 174.63639 19497 ft 418 kts 199°
2026-05-05 09:36 -37.68506 174.62554 19983 ft 421 kts 199°
2026-05-05 09:36 -37.71315 174.61468 20468 ft 423 kts 199°
2026-05-05 09:36 -37.74136 174.60376 20943 ft 425 kts 199°
2026-05-05 09:36 -37.76982 174.59274 21401 ft 428 kts 199°
2026-05-05 09:37 -37.79837 174.58168 21862 ft 430 kts 199°
2026-05-05 09:37 -37.82677 174.57067 22308 ft 433 kts 199°
2026-05-05 09:37 -37.85563 174.55947 22775 ft 434 kts 199°
2026-05-05 09:37 -37.88471 174.54818 23224 ft 437 kts 199°
2026-05-05 09:38 -37.91388 174.53685 23653 ft 439 kts 199°
2026-05-05 09:38 -37.94322 174.52544 24066 ft 442 kts 199°
2026-05-05 09:38 -37.97288 174.51492 24408 ft 445 kts 194°
2026-05-05 09:38 -38.00314 174.50808 24784 ft 447 kts 190°
2026-05-05 09:39 -38.03409 174.50292 25158 ft 449 kts 188°
2026-05-05 09:39 -38.06525 174.49868 25539 ft 450 kts 187°
2026-05-05 09:39 -38.09653 174.49477 25898 ft 452 kts 187°
2026-05-05 09:39 -38.12796 174.49088 26272 ft 454 kts 187°
2026-05-05 09:40 -38.15946 174.48686 26662 ft 456 kts 187°
2026-05-05 09:40 -38.19110 174.48269 27061 ft 457 kts 187°
2026-05-05 09:40 -38.22279 174.47840 27458 ft 459 kts 187°
2026-05-05 09:40 -38.25430 174.47405 27873 ft 461 kts 187°
2026-05-05 09:41 -38.28634 174.46958 28299 ft 463 kts 187°
2026-05-05 09:41 -38.31852 174.46507 28726 ft 465 kts 187°
2026-05-05 09:41 -38.35080 174.46055 29142 ft 467 kts 187°
2026-05-05 09:41 -38.38327 174.45600 29575 ft 470 kts 187°
2026-05-05 09:42 -38.41549 174.45148 29996 ft 472 kts 187°
2026-05-05 09:42 -38.44824 174.44689 30441 ft 474 kts 187°
2026-05-05 09:42 -38.48109 174.44229 30814 ft 477 kts 187°
2026-05-05 09:42 -38.51425 174.43764 31163 ft 480 kts 187°
2026-05-05 09:43 -38.54759 174.43296 31507 ft 482 kts 187°
2026-05-05 09:43 -38.58114 174.42825 31842 ft 485 kts 187°
2026-05-05 09:43 -38.61478 174.42352 32187 ft 487 kts 187°
2026-05-05 09:43 -38.64817 174.41883 32434 ft 488 kts 187°
2026-05-05 09:44 -38.71541 174.40937 32478 ft 484 kts 187°
2026-05-05 09:44 -38.78246 174.39991 32478 ft 484 kts 187°
2026-05-05 09:45 -38.84909 174.39051 32476 ft 484 kts 187°
2026-05-05 09:45 -38.91622 174.38102 32479 ft 484 kts 187°
2026-05-05 09:46 -38.98324 174.37151 32479 ft 484 kts 187°
2026-05-05 09:46 -39.04999 174.36232 32476 ft 485 kts 184°
2026-05-05 09:47 -39.11749 174.36373 32483 ft 485 kts 178°
2026-05-05 09:47 -39.18511 174.36733 32481 ft 485 kts 178°
2026-05-05 09:48 -39.25263 174.37114 32483 ft 485 kts 178°
2026-05-05 09:48 -39.31959 174.37499 32482 ft 485 kts 178°
2026-05-05 09:49 -39.38709 174.37888 32483 ft 485 kts 178°
2026-05-05 09:49 -39.45455 174.38279 32487 ft 485 kts 178°
2026-05-05 09:50 -39.52198 174.38670 32481 ft 485 kts 178°
2026-05-05 09:50 -39.58948 174.39063 32479 ft 485 kts 178°
2026-05-05 09:51 -39.65692 174.39456 32472 ft 485 kts 178°
2026-05-05 09:51 -39.72389 174.39846 32471 ft 484 kts 178°
2026-05-05 09:52 -39.79147 174.40241 32467 ft 484 kts 178°
2026-05-05 09:52 -39.85846 174.40634 32468 ft 484 kts 178°
2026-05-05 09:53 -39.92577 174.41029 32468 ft 484 kts 177°
2026-05-05 09:53 -39.99305 174.41424 32468 ft 484 kts 177°
2026-05-05 09:54 -40.06049 174.41821 32468 ft 484 kts 177°
2026-05-05 09:54 -40.12745 174.42217 32467 ft 484 kts 177°
2026-05-05 09:55 -40.19492 174.42615 32463 ft 483 kts 177°
2026-05-05 09:55 -40.22834 174.42814 32021 ft 477 kts 177°
2026-05-05 09:55 -40.26148 174.43011 30882 ft 475 kts 177°
2026-05-05 09:56 -40.29420 174.43205 29184 ft 479 kts 177°
2026-05-05 09:56 -40.32779 174.43405 27394 ft 485 kts 177°
2026-05-05 09:56 -40.36162 174.43605 25858 ft 486 kts 177°
2026-05-05 09:56 -40.39534 174.43805 24605 ft 482 kts 177°
2026-05-05 09:57 -40.42829 174.44000 24024 ft 461 kts 177°
2026-05-05 09:57 -40.45962 174.44187 23441 ft 441 kts 177°
2026-05-05 09:57 -40.48961 174.44366 22898 ft 423 kts 177°
2026-05-05 09:57 -40.51896 174.44542 22362 ft 423 kts 177°
2026-05-05 09:58 -40.54804 174.44716 21812 ft 423 kts 177°
2026-05-05 09:58 -40.57771 174.44894 21264 ft 420 kts 177°
2026-05-05 09:58 -40.60646 174.45066 20726 ft 417 kts 176°
2026-05-05 09:58 -40.63536 174.45239 20185 ft 414 kts 176°
2026-05-05 09:59 -40.66414 174.45412 19641 ft 414 kts 176°
2026-05-05 09:59 -40.69292 174.45586 19076 ft 414 kts 176°
2026-05-05 09:59 -40.72162 174.45799 18465 ft 413 kts 173°
2026-05-05 09:59 -40.75014 174.46286 17853 ft 411 kts 171°
2026-05-05 10:00 -40.77838 174.46843 17284 ft 408 kts 171°
2026-05-05 10:00 -40.80642 174.47383 16721 ft 406 kts 171°
2026-05-05 10:00 -40.83441 174.47905 16144 ft 405 kts 172°
2026-05-05 10:00 -40.86226 174.48412 15590 ft 403 kts 172°
2026-05-05 10:01 -40.89003 174.48911 15018 ft 402 kts 172°
2026-05-05 10:01 -40.91767 174.49405 14437 ft 400 kts 172°
2026-05-05 10:01 -40.94509 174.49894 13490 ft 406 kts 172°
2026-05-05 10:01 -40.97304 174.50390 12806 ft 403 kts 172°
2026-05-05 10:02 -41.00067 174.50880 12223 ft 397 kts 172°
2026-05-05 10:02 -41.02794 174.51371 11652 ft 392 kts 172°
2026-05-05 10:02 -41.05488 174.51849 11177 ft 389 kts 172°
2026-05-05 10:02 -41.08152 174.52323 10980 ft 382 kts 172°
2026-05-05 10:03 -41.10766 174.52847 10533 ft 378 kts 170°
2026-05-05 10:03 -41.13351 174.53414 10065 ft 375 kts 170°
2026-05-05 10:03 -41.15877 174.53970 9756 ft 366 kts 170°
2026-05-05 10:03 -41.18344 174.54510 9529 ft 352 kts 170°
2026-05-05 10:04 -41.20713 174.55032 9303 ft 334 kts 170°
2026-05-05 10:04 -41.22934 174.55516 8877 ft 315 kts 170°
2026-05-05 10:04 -41.25071 174.55979 8277 ft 307 kts 171°
2026-05-05 10:04 -41.27162 174.56431 7876 ft 302 kts 171°
2026-05-05 10:05 -41.29181 174.56919 7659 ft 285 kts 165°
2026-05-05 10:05 -41.31005 174.57762 7427 ft 269 kts 157°
2026-05-05 10:05 -41.32702 174.58726 7183 ft 269 kts 155°
2026-05-05 10:05 -41.34415 174.59732 6876 ft 265 kts 155°
2026-05-05 10:06 -41.36110 174.60724 6592 ft 263 kts 155°
2026-05-05 10:06 -41.37785 174.61705 6249 ft 266 kts 156°
2026-05-05 10:06 -41.39486 174.62698 5994 ft 266 kts 156°
2026-05-05 10:06 -41.41170 174.63683 5681 ft 263 kts 156°
2026-05-05 10:07 -41.42844 174.64659 5241 ft 264 kts 156°
2026-05-05 10:07 -41.44527 174.65638 4908 ft 263 kts 156°
2026-05-05 10:07 -41.45630 174.66281 4744 ft 257 kts 157°
2026-05-05 10:07 -41.47709 174.67507 4430 ft 239 kts 154°
2026-05-05 10:08 -41.49008 174.68863 4181 ft 238 kts 123°
2026-05-05 10:08 -41.49457 174.70163 4013 ft 231 kts 99°
2026-05-05 10:08 -41.49654 174.72278 3820 ft 229 kts 88°
2026-05-05 10:08 -41.49734 174.75119 3585 ft 228 kts 86°
2026-05-05 10:09 -41.49682 174.77157 3218 ft 215 kts 64°
2026-05-05 10:09 -41.48850 174.78643 3077 ft 197 kts 26°
2026-05-05 10:09 -41.48040 174.79227 2958 ft 194 kts 13°
2026-05-05 10:09 -41.46805 174.79766 2650 ft 185 kts
2026-05-05 10:10 -41.45546 174.79799 2390 ft 178 kts 351°
2026-05-05 10:10 -41.44299 174.79872 2114 ft 180 kts
2026-05-05 10:10 -41.43085 174.79996 1899 ft 167 kts 357°
2026-05-05 10:10 -41.41992 174.80053 1713 ft 154 kts 358°
2026-05-05 10:11 -41.40924 174.80126 1482 ft 153 kts 359°
2026-05-05 10:11 -41.39867 174.80199 1296 ft 149 kts
2026-05-05 10:11 -41.38882 174.80266 1111 ft 135 kts
2026-05-05 10:11 -41.37967 174.80328 910 ft 126 kts
2026-05-05 10:12 -41.37134 174.80385 753 ft 117 kts
2026-05-05 10:12 -41.36320 174.80443 629 ft 123 kts
2026-05-05 10:12 -41.35469 174.80501 433 ft 122 kts
2026-05-05 10:12 -41.34624 174.80559 277 ft 121 kts
2026-05-05 10:13 -41.33774 174.80622 125 ft 123 kts
2026-05-05 10:13 -41.32928 174.80677 34 ft 115 kts
2026-05-05 10:13 -41.32318 174.80718 44 ft 48 kts
2026-05-05 10:13 -41.32187 174.80758 45 ft 11 kts 59°
2026-05-05 10:14 -41.32202 174.80839 43 ft 10 kts 150°
2026-05-05 10:14 -41.32289 174.80846 46 ft 16 kts 180°
2026-05-05 10:14 -41.32420 174.80835 41 ft 22 kts 183°
2026-05-05 10:14 -41.32599 174.80824 34 ft 29 kts 182°
2026-05-05 10:15 -41.32716 174.80845 32 ft 14 kts 137°
2026-05-05 10:15 -41.32743 174.80945 32 ft 2 kts 109°
2026-05-05 10:15 -41.32749 174.80958 32 ft 0 kts 123°
2026-05-05 10:15 -41.32752 174.80963 32 ft 0 kts 129°